Location: Kielce
(50.8833°N, 20.6167°E)
Time: 01:22:09
(UTC+01:00)

ISS - Pass Details

Date: 24 February 2019
Orbit: 406 x 411 km, 51.6° (Epoch: 22 March)

Event Time Altitude Azimuth Distance (km) Brightness Sun altitude
Rises 05:38:04 0° 207° (SSW) 2,315 -0.2 -9.4°
Reaches altitude 10° 05:40:32 10° 188° (S) 1,460 -1.0 -9.0°
Maximum altitude 05:42:54 18° 142° (SE) 1,059 -1.1 -8.7°
Drops below altitude 10° 05:45:16 10° 96° (E) 1,468 0.8 -8.3°
Sets 05:47:45 0° 77° (ENE) 2,334 1.7 -7.9°
